Flag for Guatemala

Past Weather in Guatemala City, Guatemala — Yesterday and Last 2 Weeks

Now
63 °F

Passing clouds.


Feels Like: 63 °F
Forecast: 74 / 61 °F
Wind: 3 mph from North

Location: Guatemala Aeropuertola Aurora

Current Time: Aug 7, 2020 at 3:53:22 am

Latest Report: Aug 7, 2020 at 3:00 am


Visibility: 5 mi

Pressure: 30.24 "Hg (25.24 "Hg at 1533m altitude)

Humidity: 100%

Dew Point: 63 °F

Location of Guatemala CityLocation

Past Weather in Guatemala City — Graph

°F

Guatemala City Temperature Yesterday

Maximum temperature yesterday: 79 °F (at 1:00 pm)
Minimum temperature yesterday: 63 °F (at 6:00 am)
Average temperature yesterday: 67 °F

High & Low Weather Summary for the Past Weeks

 TemperatureHumidityPressure
High82 °F (Aug 3, 1:00 pm)100% (Jul 23, 3:00 am)30.36 "Hg (Jul 23, 3:00 am)
Low61 °F (Jul 25, 4:00 am)44% (Aug 1, 11:00 am)30.18 "Hg (Jul 24, 9:00 am)
Average69 °F81%30.27 "Hg
* Reported Jul 23 2:00 am — Aug 7 2:00 am, Guatemala City. Weather by CustomWeather, © 2020

Note: Actual official high and low records may vary slightly from our data, if they occured in-between our weather recording intervals... More about our weather records

Guatemala City Weather History for the Previous 24 Hours

Scroll right to see more
 ConditionsComfort  
Time TempWeatherWind HumidityBarometerVisibility
2:00 am
Fri, Aug 7
63 °FPassing clouds.3 mph94%30.24 "HgN/A
1:00 am64 °FFog.N/A94%30.30 "HgN/A
12:00 am64 °FPassing clouds.3 mph94%30.27 "HgN/A
11:00 pm
Thu, Aug 6
63 °FPassing clouds.3 mph100%30.30 "HgN/A
10:00 pm63 °FPassing clouds.7 mph100%30.30 "HgN/A
9:00 pm64 °FPassing clouds.9 mph94%30.27 "HgN/A
8:00 pm66 °FLight rain. Partly cloudy.5 mph94%30.24 "Hg5 mi
7:00 pm66 °FLight rain. Partly cloudy.7 mph94%30.24 "HgN/A
6:00 pm66 °FLight rain. Broken clouds.7 mph94%30.18 "HgN/A
5:00 pm66 °FBroken clouds.5 mph94%30.18 "HgN/A
4:00 pm66 °FHeavy rain. Partly sunny.7 mph94%30.18 "Hg3 mi
3:00 pm73 °FThunderstorms. Scattered clouds.7 mph74%30.18 "Hg5 mi
2:00 pm77 °FScattered showers. Scattered clouds.12 mph61%30.21 "Hg4 mi
1:00 pm79 °FScattered clouds.14 mph61%30.21 "HgN/A
12:00 pm77 °FScattered clouds.12 mph61%30.24 "HgN/A
11:00 am72 °FScattered clouds.12 mph73%30.27 "HgN/A
10:00 am72 °FBroken clouds.14 mph73%30.27 "HgN/A
9:00 am68 °FBroken clouds.9 mph83%30.27 "HgN/A
8:00 am66 °FPartly sunny.9 mph83%30.24 "HgN/A
7:00 am64 °FBroken clouds.5 mph88%30.24 "HgN/A
6:00 am63 °FBroken clouds.7 mph94%30.21 "HgN/A
5:00 am64 °FPassing clouds.9 mph94%30.24 "HgN/A
4:00 am64 °FPassing clouds.9 mph94%30.24 "HgN/A
3:00 am64 °FPassing clouds.9 mph94%30.24 "HgN/A
Weather by CustomWeather, © 2020

See weather overview